FENGYUN 1C DEB, 30879

Orbit data source: Space-Track

FENGYUN 1C DEB, 30879 is space debris in SSO originally from a launch on Mon, 10 May 1999 UTC launched from the Taiyaun Space Center, China (TSC). Fengyun 1C debris stems from the Chinese weather satellite Fengyun-1C, which was intentionally destroyed by a Chinese anti-satellite missile in 2007. This event dramatically increased the amount of space debris, with thousands of trackable fragments posing hazards to satellites and human spaceflight. The Fengyun 1C debris cloud has become a focal point in discussions about space sustainability and the need for international regulations to prevent the creation of new debris.

Loading next visibility...
Identifier
30879, 1999-025AXR
Orbit
SSO
Country
Flag of CNCN / PRC
Related business
Manufacturer
Unknown
Mission
Spacecraft
Bus & Motor
Unknown
Mass
Unknown
Launch date (UTC)
1999-05-10 (27 years ago)
Launch vehicle
Unknown
Launch site
Taiyaun Space Center, China (TSC)
Object type
Payload
Rocket body
Debris
Shape & HBR
Unknown shape, 0.1 m
Radar Cross Section
Small (<0.1 m²)

Expand to show TLE details & history
Last TLE update: 13 hours ago

TLE from 13 hours ago
0 FENGYUN 1C DEB
1 30879U 99025AXR 26169.44683596  .00021646  00000-0  23360-2 0  9996
2 30879  99.3458  59.2797 0180035  62.1675 299.7645 14.77208994647022
Epoch: 2026-06-18T10:43Z
TLE epoch observation values (Epoch: 2026-06-18T10:43:26.626Z)
Latitude
-0.00011°
Longitude
-8.27126°
Altitude
580.135 km
Speed
7.603 km/s
True Right ascension
03h 57m 07s
True Declination
0° 00' 00"
Sunlit
Object was in daylight at epoch
Visualization orbit readout
Latitude
Unknown
Longitude
Unknown
Altitude
Unknown
Speed
Unknown
Apparent Right ascension
Unknown
Apparent Declination
Unknown
Sunlit
N/A
Visualization observer readout
Local Sidereal Time
10:03:48
Azimuth
Unknown
Elevation
Unknown
Doppler factor
Unknown
Orbital elements
Apogee altitude
761.527 km
Perigee altitude
508.996 km
Semi-major axis
7,013.398 km
Eccentricity
0.018
Inclination
99.3458°
RAAN
59.2797°
Arg. of periapsis
62.1675°
True anomaly
297.9537°
Mean anomaly
299.7645°
Eccentric anomaly
298.8611°
Mean motion
3.69531 °/min
Orbital period
97.42 mins
BSTAR
0.002336
Loading maneuver chart data...
Computing Atmospheric mass density...

Documentation

Showing up to 5 results
|